TIME,DELAY(SENSOR),PRES,T(CTD),SAL,OXYGEN,RAWTEMP,T(OPTODE),TCPHASE,FLUOR,BETA(BETA700),BETA(BETA412),BETA(BETA440),CDOM,C(CSC),ED(ED412.40),ED(ED444.00),ED(ED489.70),ED(ED554.30),LU(LU411.80),LU(LU443.40),LU(LU489.60),LU(LU554.10),COMP,TILTX,TILTX(TILTY),CHECK
1369691039,5808,497.8299865722656000,6.3171000480651855,34.1283988952636700,67.9892272949218800,608.8051147460938000,6.2994589805603030,50.4926795959472660,52,103,87,80,79,14837,2147744740,2147424905,2148005412,2147873517,2147630006,2147064155,2148246299,2147195318,195,4,13,9289
1369691181,5812,486.2699890136719000,6.4868001937866210,34.1164016723632800,73.9959716796875000,603.5474243164062000,6.4696121215820310,49.6791687011718750,51,103,87,80,78,14837,2147746011,2147426980,2148003693,2147873234,2147634907,2147069942,2148240512,2147198134,2049,4,13,41793
1369691320,5807,475.2000122070312500,6.7346000671386720,34.1175003051757800,80.4770507812500000,596.2584838867188000,6.7050628662109375,48.7993392944335940,51,104,86,79,78,14838,2147747565,2147424329,2148006601,2147873600,2147631652,2147069504,2148243529,2147202166,3255,4,13,10681
1369691449,5807,464.9899902343750000,6.8741998672485350,34.1086997985839840,87.9872970581054700,591.6682739257812000,6.8530831336975100,47.8682289123535160,50,103,88,79,77,14838,2147744859,2147427062,2148006692,2147873005,2147629915,2147065526,2148236736,2147198153,2370,4,13,13980
1369691588,5811,453.8800048828125000,7.0577998161315920,34.1074981689453100,94.1787261962890600,585.9711914062500000,7.0365219116210940,47.0973205566406250,51,104,89,80,77,14837,2147746578,2147424612,2148005842,2147872100,2147628964,2147070930,2148244406,2147199122,1507,4,13,64948
1369691736,5809,441.8200073242187500,7.3930001258850100,34.1007995605468750,105.4785003662109400,574.7595825195312000,7.3966541290283200,45.7283515930175800,51,104,87,79,75,14839,2147746038,2147424685,2148003456,2147873124,2147624658,2147069156,2148240548,2147202404,897,4,13,46789
1369691852,5809,430.5100097656250000,7.6475000381469730,34.0872993469238300,115.9223022460937500,567.5781860351562000,7.6267409324646000,44.5690383911132800,51,103,86,81,75,14834,2147747776,2147428379,2148001444,2147872429,2147626523,2147074770,2148235364,2147197531,635,4,12,64669
1369691979,5809,418.6900024414062500,7.8522000312805180,34.0821990966796900,127.2954025268554700,561.1129150390625000,7.8335041999816895,43.3874893188476560,50,103,87,81,75,14835,2147742866,2147422144,2148000649,2147873024,2147623597,2147079826,2148236470,2147199094,3115,3,13,56469
1369692109,5807,407.8699951171875000,8.1660003662109380,34.0750007629394500,141.3540039062500000,550.9816284179688000,8.1567878723144530,41.9751701354980500,50,105,87,80,74,14834,2147740900,2147427401,2148002889,2147874422,2147623332,2147084370,2148235556,2147204690,1189,3,13,30124
1369692260,5807,396.3200073242187500,8.6009998321533200,34.0830001831054700,155.1544036865234400,533.9138183593750000,8.6995086669921880,40.5489082336425800,50,103,86,80,73,14836,2147740726,2147425362,2148005083,2147875081,2147616466,2147079926,2148226825,2147197714,2182,4,13,29785
1369692408,5808,383.6400146484375000,9.0255002975463870,34.0941009521484400,169.8625030517578000,523.8215942382812000,9.0193414688110350,39.2576789855957000,50,102,85,79,72,14834,2147739776,2147426660,2148003337,2147871213,2147616603,2147092068,2148228114,2147200585,1594,3,13,8970
1369692511,5809,373.4200134277344000,9.2725000381469730,34.0994987487793000,178.0545043945312500,516.2874755859375000,9.2575950622558600,38.5439491271972660,49,103,87,80,72,14834,2147736621,2147424274,2148004571,2147870244,2147619657,2147090870,2148230189,2147200448,312,4,13,31400
1369692626,5810,361.7600097656250000,9.7517995834350590,34.1127014160156250,187.2559051513672000,500.7850952148437500,9.7465362548828120,37.6525611877441400,50,105,86,79,71,14836,2147736374,2147424914,2148007844,2147872603,2147614619,2147089371,2148228278,2147202843,209,3,13,19783
1369692732,5807,351.1400146484375000,10.0106000900268550,34.1267013549804700,193.0720977783203000,492.3840026855469000,10.0108003616333000,37.1313514709472660,49,105,87,80,71,14831,2147732681,2147427392,2148008118,2147869229,2147612224,2147093632,2148225618,2147200475,2582,4,13,43188
1369692847,5808,339.2999877929687500,10.3249998092651370,34.1321983337402340,197.9165039062500000,482.9325866699219000,10.3075304031372070,36.6662902832031250,49,105,86,80,70,14832,2147733622,2147427776,2148011584,2147875611,2147611062,2147097042,2148225709,2147202688,1811,3,13,55780
1369692962,5808,327.4899902343750000,10.6133003234863280,34.1479988098144500,201.5496978759765600,472.4883117675781000,10.6347503662109380,36.2677192687988300,48,103,87,80,68,14828,2147730176,2147427821,2148020470,2147875090,2147607314,2147099364,2148228992,2147202733,820,3,13,46335
1369693080,5810,316.9899902343750000,10.9816999435424800,34.1715011596679700,206.0281982421875000,461.9006042480469000,10.9657697677612300,35.8225402832031250,49,108,87,80,70,14834,2147727670,2147430820,2148026861,2147872630,2147608420,2147104082,2148227346,2147202779,2761,3,14,4661
1369693231,5810,306.1700134277344000,11.0804996490478520,34.1763992309570300,207.7055053710937500,458.4036865234375000,11.0749502182006840,35.6659507751464840,48,108,83,78,69,14839,2147730459,2147433170,2148024420,2147871122,2147606902,2147105462,2148225115,2147201563,1296,3,14,49192
1369693387,5809,294.2200012207031000,11.4229001998901370,34.1875000000000000,209.5220947265625000,447.2327880859375000,11.4232597351074220,35.3782005310058600,49,104,86,80,69,14832,2147731876,2147429906,2148008512,2147872128,2147606006,2147109741,2148218294,2147208192,150,3,14,13835
1369693514,5811,282.7900085449219000,11.9395999908447270,34.2098007202148440,210.7949981689453000,430.2715148925781000,11.9507799148559570,35.0316390991210940,49,104,85,80,68,14829,2147727360,2147438052,2148030445,2147868900,2147603529,2147111945,2148227501,2147204032,2984,3,14,27433
1369693631,5811,272.5400085449219000,12.3816995620727540,34.2251014709472660,212.4212951660156200,416.4960021972656000,12.3781204223632810,34.7198982238769500,49,102,88,79,69,14835,2147726528,2147459126,2148100662,2147873051,2147599990,2147126345,2148257234,2147210468,2887,3,13,36434
1369693770,5809,261.6000061035156000,12.9765996932983400,34.2626991271972660,214.2808990478515600,395.9061889648437500,13.0151596069335940,34.2935905456543000,48,104,87,81,68,14827,2147724589,2147471515,2148132525,2147872795,2147599963,2147138249,2148267382,2147211931,1944,4,14,46693
1369693966,5810,248.7599945068359400,14.0368003845214840,34.3549003601074200,217.6958007812500000,363.4961853027344000,14.0143404006958000,33.6089897155761700,48,103,86,80,67,14825,2147724425,2147499629,2148195428,2147872036,2147596635,2147161179,2148298697,2147211602,3194,3,13,44290
1369694105,5810,237.3300018310547000,14.4064998626708980,34.4053993225097660,225.0066986083984400,350.7979125976562500,14.4047803878784180,33.0261497497558600,48,104,87,80,67,14828,2147726454,2147532827,2148261065,2147873691,2147593746,2147182976,2148330194,2147216914,2089,3,14,50075
1369694220,5810,226.3500061035156200,14.9790000915527340,34.4622001647949200,225.6259002685547000,331.6669006347656000,14.9920797348022460,32.7121391296386700,48,104,90,79,65,14826,2147739931,2147591305,2148385901,2147872283,2147597988,2147231451,2148387291,2147222610,2726,3,14,31990
1369694338,5808,215.2200012207031200,15.6035995483398440,34.5181007385253900,225.8088989257812500,311.9198913574219000,15.5972795486450200,32.4159202575683600,49,106,87,81,64,14819,2147752640,2147664374,2148531876,2147872704,2147603501,2147275766,2148462198,2147230454,2729,3,13,23544
1369694465,5807,204.7700042724609400,16.2791996002197270,34.5775985717773440,221.1253967285156200,288.8580017089844000,16.3030490875244140,32.3307113647460940,50,114,89,80,65,14815,2147777380,2147781522,2148747209,2147875136,2147607012,2147350912,2148560886,2147235757,2032,2,15,46971
1369694556,5810,197.5899963378906200,16.4053993225097660,34.5918998718261700,216.9824066162109400,285.0344848632812500,16.4199695587158200,32.4973793029785160,51,109,85,80,66,14812,2147808320,2147887552,2148933677,2147876196,2147616731,2147409526,2148656502,2147243026,1569,3,15,8030
1369694631,5806,192.2700042724609400,16.9220008850097660,34.6572990417480500,216.1446075439453000,269.1810913085937500,16.9045696258544920,32.3174095153808600,52,110,89,81,65,14812,2147838345,2147977810,2149091483,2147877138,2147626889,2147469110,2148735853,2147249462,1412,2,14,63154
1369694698,5807,188.5800018310547000,17.4333992004394530,34.7234001159668000,216.1210937500000000,251.1678009033203000,17.4548702239990230,32.0648002624511700,53,110,86,82,64,14810,2147867830,2148065408,2149234194,2147877357,2147637284,2147524004,2148804589,2147255204,569,3,15,2131
1369694777,5809,184.8000030517578000,17.8286991119384770,34.7695007324218750,217.3901062011718800,239.8374023437500000,17.8009204864501950,31.8385601043701170,57,109,87,81,64,14810,2147901257,2148155840,2149393517,2147875574,2147650989,2147581101,2148879094,2147259163,145,3,14,42894
1369694868,5809,180.5599975585937500,18.2663002014160160,34.8294982910156250,217.4832000732422000,225.3551940917968800,18.2431793212890620,31.6332607269287100,60,115,90,81,63,14805,2147951990,2148281810,2149584694,2147878034,2147667657,2147657106,2148972845,2147269357,3582,3,15,10152
1369694961,5810,176.7500000000000000,18.4025001525878900,34.8544006347656250,219.6726074218750000,220.2066040039062500,18.4004096984863280,31.4472503662109380,60,113,88,81,63,14799,2148011894,2148440859,2149862582,2147880685,2147695314,2147756790,2149091584,2147276324,3249,2,15,10844
1369695064,5808,172.5899963378906200,18.6795997619628900,34.8973999023437500,220.8446960449218800,211.3529052734375000,18.6708106994628900,31.2647399902343750,64,111,88,81,64,14799,2148066450,2148537133,2149989083,2147881718,2147716379,2147811748,2149156050,2147285915,1709,2,15,55109
1369695155,5808,168.5500030517578000,18.8106994628906250,34.9185981750488300,221.4214019775390600,206.9293060302734400,18.8059196472167970,31.1749591827392580,66,116,86,81,63,14794,2147958116,2148134582,2149209993,2147878454,2147671533,2147572992,2148751405,2147250093,1195,2,15,49469
1369695236,5803,164.8300018310547000,19.0216007232666000,34.9519996643066400,221.8815002441406200,200.0841979980468800,19.0150108337402340,31.0581703186035160,71,116,91,81,62,14795,2147855771,2147820105,2148615936,2147874587,2147630646,2147400630,2148482678,2147232758,3305,2,16,50385
1369695327,5813,160.6300048828125000,19.3134002685546880,34.9944992065429700,222.3984069824218800,190.5749969482422000,19.3055400848388670,30.9034099578857420,79,115,87,81,63,14786,2147919652,2147954770,2148824896,2147879734,2147656804,2147486875,2148581421,2147243099,2836,2,15,36922
1369695418,5806,156.2400054931640600,19.5044002532959000,35.0199012756347660,222.9687957763672000,185.2745971679687500,19.4675197601318360,30.8030300140380860,83,122,88,82,62,14775,2148024393,2148173302,2149169426,2147877961,2147701238,2147605046,2148734226,2147255186,3074,2,15,8623
1369695497,5805,152.2599945068359400,19.8761005401611330,35.0768013000488300,222.8432006835937500,173.2902984619140600,19.8338909149169920,30.6491203308105470,90,116,90,83,62,14778,2148002413,2148091492,2149004150,2147879158,2147691309,2147560118,2148652416,2147251126,3113,2,15,49861
1369695578,5807,148.7599945068359400,20.1326999664306640,35.1347007751464840,226.3453979492187500,164.1963958740234400,20.1120300292968750,30.3519802093505860,95,119,89,82,61,14764,2148077577,2148234331,2149207314,2147880713,2147727195,2147631826,2148747163,2147255369,2553,2,15,5526
1369695693,5807,144.8500061035156200,20.2231998443603500,35.1651992797851560,229.4533996582031200,160.8401031494140600,20.2147102355957030,30.1543693542480470,94,119,89,82,62,14764,2148468205,2149074322,2150571428,2147889435,2147895113,2148098697,2149341504,2147301833,2301,2,15,65393
1369695820,5807,141.0099945068359400,20.4895992279052730,35.2230987548828100,232.9353942871093800,152.4739074707031200,20.4707698822021500,29.8757896423339840,97,120,89,82,61,14767,2149080905,2150340717,2152642770,2147910774,2148196123,2148876973,2150362605,2147382262,2137,2,15,49533
1369695955,5808,136.8099975585937500,20.8134002685546880,35.2853012084960940,237.6412048339843800,141.5019073486328000,20.8067893981933600,29.5107002258300780,100,119,89,83,60,14743,2149741979,2151624064,2154739072,2147928320,2148536896,2149592091,2151229238,2147445741,506,2,15,604
1369696058,5809,132.7500000000000000,21.0732002258300780,35.3245010375976560,239.8919982910156200,133.2261047363281200,21.0604190826416000,29.2994403839111330,114,124,91,83,60,14741,2148461165,2148850541,2150063579,2147888374,2147948123,2148031442,2149139638,2147289289,3239,2,15,18076
1369696149,5810,128.8899993896484400,21.1350994110107420,35.3344001770019500,241.3083038330078000,130.7722930908203000,21.1356601715087900,29.2030506134033200,124,119,88,83,60,14724,2150974555,2153815899,2157966080,2147976749,2149181860,2150753901,2152570880,2147556891,2717,2,16,44714
1369696239,5810,123.9300003051757800,21.2222995758056640,35.3354988098144500,242.4176025390625000,128.1856994628906200,21.2149791717529300,29.1190795898437500,127,123,88,82,59,14717,2149242642,2150177408,2151891081,2147912667,2148329499,2148718208,2149911478,2147355657,2026,2,15,46053
1369696294,5811,120.2799987792968800,21.2373008728027340,35.3242988586425800,242.1049041748047000,127.5520019531250000,21.2344207763671880,29.1253795623779300,131,120,87,82,59,14715,2151166171,2153667949,2157062125,2147985307,2149250477,2150531328,2152092818,2147535094,2013,2,15,37653
1369696361,5807,115.8600006103515600,21.2604999542236330,35.3120994567871100,241.8036041259765600,126.9753036499023400,21.2520999908447270,29.1315994262695300,146,120,88,82,60,14707,2154483117,2159468909,2165379245,2148126326,2150756873,2153347328,2155429760,2147815552,1846,2,15,49105
1369696416,5808,112.3700027465820300,21.1851997375488280,35.2430992126464840,241.1360015869140600,129.0753021240234400,21.1876907348632800,29.1889190673828120,140,122,89,82,61,14689,2155343771,2160552914,2166337426,2148162779,2151025664,2153669257,2155697828,2147855789,1456,2,15,1123
1369696483,5808,108.6399993896484400,21.1439990997314450,35.2200012207031250,240.3330993652343800,130.4683074951172000,21.1449794769287100,29.2438201904296880,150,120,92,82,63,14684,2157493449,2163695049,2170094290,2148251638,2151820982,2154947757,2157101979,2147991113,708,2,15,42849
1369696558,5810,105.1399993896484400,21.1979007720947270,35.1908988952636700,239.2321014404297000,129.0431976318359400,21.1886806488037100,29.2759494781494140,144,122,87,83,61,14684,2157515236,2163040036,2168278994,2148239826,2151695552,2154452800,2156307794,2147943488,3,2,15,31388
1369696661,5808,102.1699981689453100,21.3222007751464840,35.2191009521484400,240.4732055664062500,124.9269027709961000,21.3149394989013670,29.1661491394042970,129,118,90,82,60,14697,2162610587,2170752914,2177950985,2148473837,2153686756,2157807186,2160008164,2148289974,3486,2,15,29809
1369696776,5810,99.0599975585937500,21.3381996154785160,35.2148017883300800,241.1631927490234400,124.2626037597656200,21.3353195190429700,29.1260509490966800,132,118,87,84,62,14700,2165509458,2174302253,2181380278,2148603136,2154959899,2159624283,2161725348,2148466139,3359,2,16,29162
1369696863,5806,96.2699966430664000,21.4241008758544920,35.2340011596679700,240.9947052001953000,120.6847991943359400,21.4451007843017580,29.0879993438720700,124,118,90,83,60,14696,2169076352,2178697782,2185749211,2148782345,2156482944,2161736210,2163632530,2148670756,3120,1,15,5593
1369696918,5811,93.8700027465820300,21.7311000823974600,35.2958984375000000,241.1356964111328000,111.3442993164062500,21.7318897247314450,28.9624195098876950,112,114,86,81,58,14719,2171603977,2181769792,2188836507,2148933668,2157776640,2163428132,2165083309,2148837970,2384,1,15,61680
1369696973,5806,91.5599975585937500,21.8446998596191400,35.3160018920898440,243.3217926025390600,108.4906005859375000,21.8195590972900400,28.8271503448486330,93,114,88,82,59,14724,2174286098,2184920283,2191902729,2149085668,2159389714,2165516964,2166821376,2149013824,1671,2,16,45737
1369697028,5806,89.3099975585937500,21.8586997985839840,35.2975006103515600,244.1206054687500000,106.7656021118164000,21.8725700378417970,28.7693996429443360,85,115,89,83,59,14722,2177411245,2188552493,2195460114,2149275282,2161250176,2167945042,2168850816,2149218112,1264,1,15,51348
1369697083,5805,87.0699996948242200,21.8806991577148440,35.2728996276855500,244.6688995361328000,106.4700012207031200,21.8816509246826170,28.7413196563720700,82,117,90,83,60,14723,2181147748,2192985938,2200070262,2149551286,2163281206,2170530797,2170995392,2149449764,1009,2,16,35251
1369697138,5808,85.0299987792968800,21.9540996551513670,35.2644004821777340,244.7290954589843800,104.2828979492187500,21.9488697052001950,28.7110404968261720,78,115,90,84,57,14720,2184131684,2196210194,2202893686,2149710381,2165151460,2172966555,2172979940,2149643858,1236,2,15,45306
1369697216,5806,82.1399993896484400,22.1504001617431640,35.2762985229492200,244.9031982421875000,98.5360870361328100,22.1255798339843750,28.6304893493652340,75,117,92,82,58,14721,2189994852,2202449444,2208579739,2150139364,2168898349,2177595794,2176705819,2150037668,951,2,15,27416
1369697271,5808,79.8899993896484400,22.3057994842529300,35.2756996154785160,245.4102935791015600,92.9485702514648400,22.2975006103515620,28.5374507904052730,75,118,90,84,59,14719,2194993334,2208054957,2214105782,2150574208,2172094198,2181351122,2179546852,2150356196,1150,2,16,27091
1369697326,5806,77.9899978637695300,22.3518009185791000,35.2773017883300800,246.6087036132812500,91.2773513793945300,22.3489398956298830,28.4636592864990230,75,119,90,84,56,14710,2198550738,2211711186,2217209627,2150835940,2175017782,2184809014,2182170614,2150606582,903,1,16,17485
1369697393,5809,75.8899993896484400,22.4937992095947270,35.3055000305175800,246.9833984375000000,86.3198394775390600,22.5015907287597660,28.3847999572753900,72,118,92,84,56,14714,2202224018,2215289673,2220113563,2151222162,2178331666,2188455972,2184708013,2150877558,356,2,16,10701
1369697448,5810,74.2200012207031200,22.4692001342773440,35.2709999084472660,247.8047027587890600,87.1238327026367200,22.4768295288085940,28.3589897155761720,71,119,89,84,58,14706,2206354450,2219728118,2224229293,2151696054,2180877110,2191069741,2186468278,2151094052,3467,2,16,58077
1369697527,5809,71.4800033569336000,22.5970993041992200,35.2607002258300800,248.1013031005859400,83.2047805786132800,22.5975608825683600,28.2968902587890620,69,117,88,84,57,14708,2218316662,2233062930,2237343616,2152750601,2188604361,2200342619,2193800640,2151898066,3481,1,16,3039
1369697582,5808,69.1299972534179700,22.6812992095947270,35.2527999877929700,248.3701934814453000,80.7653579711914000,22.6727409362792970,28.2547092437744140,66,117,90,83,58,14703,2214641700,2226523264,2228573220,2152548946,2187804635,2198058230,2190743826,2151642130,2911,2,16,21064
1369697637,5808,66.7900009155273400,22.7649002075195300,35.2052993774414060,248.6976013183593800,78.5167388916015600,22.7420501708984380,28.2123794555664060,66,120,90,83,55,14700,2223206016,2235289755,2236566555,2153374884,2193732891,2204657993,2195479670,2152230637,2247,1,16,56205
1369697692,5807,64.7799987792968800,22.8083992004394530,35.2153015136718750,249.3739013671875000,76.5529327392578100,22.8026103973388670,28.1584300994873050,65,119,91,85,58,14697,2245733613,2261156004,2263420626,2155969718,2207125869,2220784274,2208430601,2153738496,2276,2,16,26345
1369697747,5809,62.5400009155273440,22.8491001129150400,35.2030982971191400,249.8825988769531200,74.9856567382812500,22.8509407043457030,28.1168708801269530,63,123,88,83,56,14692,2261021513,2276885814,2278232786,2157681462,2219020425,2234444288,2219133970,2155000320,2515,2,16,21881
1369697802,5808,60.3400001525878900,22.9062004089355470,35.2070007324218750,250.1647033691406200,73.1057510375976600,22.9089393615722660,28.0814990997314450,60,119,90,85,57,14696,2241854326,2251802276,2250561892,2155907437,2207297947,2217924169,2203989138,2153424923,3205,1,16,45821
1369697880,5812,56.9000015258789060,23.0513000488281250,35.2089996337890600,250.4506988525390600,68.6006393432617200,23.0479698181152340,28.0131492614746100,60,122,90,83,56,14685,2255937764,2265111286,2262458733,2158017718,2218913033,2229731858,2212070116,2154501147,2992,1,16,23129
1369697935,5808,54.0200004577636700,23.1205005645751950,35.2210006713867200,250.9104003906250000,66.2239685058593800,23.1213493347167970,27.9638309478759770,58,116,90,86,55,14690,2282990162,2293140809,2290007478,2162335597,2239527414,2252101229,2228623561,2156677604,2838,2,15,26869
1369697990,5807,50.9900016784668000,23.3220996856689450,35.2438011169433600,250.5612945556640600,59.6220893859863300,23.3253097534179700,27.8971405029296880,57,117,90,84,58,14681,2293762706,2301987218,2297414089,2164876141,2249004937,2260250130,2233448374,2157746724,2748,2,16,23856
1369698045,5809,48.0900001525878900,23.5111999511718750,35.2766990661621100,250.5424041748047000,53.9902114868164060,23.4994602203369140,27.8281898498535160,58,117,90,84,55,14695,2272075364,2274707145,2268350171,2162557028,2239946971,2246682614,2220995245,2156211931,3281,2,15,591
1369698100,5806,45.2500000000000000,23.5764007568359380,35.2863006591796900,250.5090026855468800,50.2493591308593750,23.6152095794677730,27.7836494445800780,56,116,91,85,55,14697,2275650916,2276418294,2269153481,2164073865,2246556772,2251549165,2223417974,2156776768,3582,1,15,5523
1369698155,5808,42.5600013732910160,23.9160003662109380,35.2951011657714840,249.8690032958984400,40.6347007751464840,23.9130096435546880,27.6924800872802730,55,115,89,84,52,14698,2284421238,2284664484,2277206400,2167096886,2257590665,2261489910,2229800018,2157996864,3133,2,16,64984
1369698213,5811,40.5099983215332000,24.0375995635986330,35.3033981323242200,249.7709045410156200,36.8137893676757800,24.0314807891845700,27.6496791839599600,54,115,89,85,58,14701,2304080310,2304880658,2297907529,2172843419,2275881270,2279399433,2242225298,2160080155,3184,1,16,55024
1369698268,5806,38.8300018310546900,24.1446990966796880,35.3334007263183600,249.4940032958984400,33.3485107421875000,24.1389904022216800,27.6189002990722660,54,113,91,83,55,14706,2323470729,2324456868,2317276160,2177966427,2295551305,2298439981,2255231286,2162207844,2864,1,16,42915
1369698335,5804,37.0699996948242200,24.2045001983642580,35.3452987670898440,249.2422943115234400,30.9457798004150400,24.2135601043701170,27.6002597808837900,55,116,88,83,54,14697,2351327661,2352623606,2345103808,2185260726,2326321316,2328947282,2276442980,2165800685,2149,2,16,56396
1369698414,5809,35.0800018310546900,24.2828006744384770,35.3591003417968750,248.7216949462890600,28.2842006683349600,24.2962093353271500,27.5897808074951170,53,114,91,84,55,14699,2407905152,2411122340,2405488027,2204054756,2379138377,2381364160,2313275035,2172251035,1824,1,17,21233
1369698481,5809,33.2999992370605500,24.4500999450683600,35.3638992309570300,247.8843994140625000,23.6166191101074220,24.4412307739257800,27.5685405731201170,54,116,93,84,59,14695,2396931986,2398520045,2392995017,2204661522,2375409508,2373780516,2305802386,2171625636,1684,2,15,26153
1369698559,5806,31.1200008392334000,24.8568992614746100,35.3755989074707000,245.2463989257812500,11.2009096145629880,24.8275699615478500,27.5303306579589840,52,116,91,83,57,14697,2393269787,2393233042,2386770285,2207660772,2381327652,2374490642,2303187062,2172850139,2118,1,15,56081
1369698626,5810,29.1000003814697270,24.9598999023437500,35.3782997131347660,243.7070007324218800,6.4591789245605470,24.9753398895263670,27.5392208099365230,53,114,90,82,57,14679,2384725659,2383137316,2377101037,2209379035,2389680347,2380412818,2306501915,2173020937,1443,1,16,4036